STARLINK-35266, 65804

Orbit data source: Space-Track

STARLINK-35266, 65804 is a payload satellite owned by SpaceX/Seattle (US) in SSO that was launched on Fri, 26 Sep 2025 UTC via an FALCON 9 launch vehicle from the Air Force Western Test Range (AFWTR). Payload-class satellites include a variety of spacecraft equipped with specific instruments for various scientific and technological missions. These include communications satellites like Starlink; space stations such as the ISS; scientific satellites like the Hubble; Earth observation satellites from companies like Planet Labs, Umbra, and HawkEye 360; GPS; miniature CubeSats for education and research; and military/defense satellites.

Loading next visibility...
Identifier
65804, 2025-218P
Orbit
SSO
Country
Flag of USUS
Related business
Manufacturer
SpaceX/Seattle
Mission
Operational Commercial Communications
Bus & Motor
STARLINK V2MO, Unknown motor
Mass
575 kg wet, ~530 kg dry
Launch date (UTC)
2025-09-26 (5 months ago)
Launch vehicle
FALCON 9
Launch site
Air Force Western Test Range (AFWTR)
Object type
Payload
Rocket body
Debris
Shape & HBR
Box + 2 Pan, 17.7 m
Radar Cross Section
36.964 m²

Expand to show TLE details & history
Last TLE update: 8 hours ago

TLE from 8 hours ago
0 STARLINK-35266
1 65804U 25218P   26062.61919949  .00004366  00000-0  30658-3 0  9999
2 65804  97.6036 286.9309 0002099  92.8194 267.3273 15.05653918 24050
Epoch: 2026-03-03T14:51Z
TLE epoch observation values (Epoch: 2026-03-03T14:51:38.835Z)
Latitude
-0.00006°
Longitude
-97.37657°
Altitude
552.632 km
Speed
7.585 km/s
True Right ascension
19h 07m 43s
True Declination
0° 00' 00"
Sunlit
Object was in daylight at epoch
Visualization orbit readout
Latitude
Unknown
Longitude
Unknown
Altitude
Unknown
Speed
Unknown
Apparent Right ascension
Unknown
Apparent Declination
Unknown
Sunlit
N/A
Visualization observer readout
Local Sidereal Time
02:42:20
Azimuth
Unknown
Elevation
Unknown
Doppler factor
Unknown
Orbital elements
Apogee altitude
547.946 km
Perigee altitude
545.039 km
Semi-major axis
6,924.63 km
Eccentricity
0.00021
Inclination
97.6036°
RAAN
286.9309°
Arg. of periapsis
92.8194°
True anomaly
267.30327°
Mean anomaly
267.3273°
Eccentric anomaly
267.31529°
Mean motion
3.76659 °/min
Orbital period
95.58 mins
BSTAR
0.00030658
Loading maneuver chart data...
Computing Atmospheric mass density...
Loading historical data...
Loading historical data...
Loading historical data...
Loading historical data...
Loading historical data...
Loading historical data...
Loading historical data...

Documentation

Showing up to 5 results
|